Location: Bay Ridge
(40.6340°N, 74.0146°W)
Time: 22:47:24
(UTC+00:00)

Cosmos 2278 - Pass Details

Date: 15 November 2019
Orbit: 838 x 855 km, 71.1° (Epoch: 05 December)

Event Time Altitude Azimuth Distance (km) Brightness Sun altitude
Exits shadow 09:34:58 57° 300° (WNW) 1,003 3.7 -24.2°
Maximum altitude 09:35:55 67° 250° (WSW) 923 3.6 -24.0°
Drops below altitude 10° 09:41:33 10° 169° (S) 2,474 6.3 -22.9°
Sets 09:44:00 0° 167° (SSE) 3,404 7.1 -22.5°
